timestamp,surface_pressure_avg,surface_temp_avg,battery_voltage,lat,long
2018-08-23 00:00:00+00:00,289.4414,16.75,13.13,47.84626,-54.09684
2018-08-23 00:10:00+00:00,281.4197,17.42,13.05,47.84626,-54.09684
2018-08-23 00:20:00+00:00,273.6164,17.25,13.13,47.84626,-54.09684
2018-08-23 00:30:00+00:00,272.1381,16.8,13.13,47.84626,-54.09684
2018-08-23 00:40:00+00:00,267.8731,16.79,13.13,47.84626,-54.09684
2018-08-23 00:50:00+00:00,259.3798,17.34,13.13,47.84626,-54.09684
2018-08-23 01:00:00+00:00,254.7864,17.4,13.05,47.84626,-54.09684
2018-08-23 01:10:00+00:00,254.1747,17.1,13.05,47.84626,-54.09684
2018-08-23 01:20:00+00:00,251.7914,17.0,13.05,47.84626,-54.09684
2018-08-23 01:30:00+00:00,247.4864,17.25,13.05,47.84626,-54.09684
2018-08-23 01:40:00+00:00,243.7914,17.41,13.13,47.84626,-54.09684
2018-08-23 01:50:00+00:00,240.7364,17.2,13.13,47.84626,-54.09684
2018-08-23 02:00:00+00:00,238.6831,17.0,13.05,47.84626,-54.09684
2018-08-23 02:10:00+00:00,235.9614,17.26,12.97,47.84626,-54.09684
2018-08-23 02:20:00+00:00,232.5398,17.4,13.05,47.84626,-54.09684
2018-08-23 02:30:00+00:00,228.2081,17.2,13.05,47.84626,-54.09684
2018-08-23 02:40:00+00:00,226.3865,17.2,13.05,47.84626,-54.09684
2018-08-23 02:50:00+00:00,226.4565,17.3,13.05,47.84626,-54.09684
2018-08-23 03:00:00+00:00,224.5898,17.39,13.05,47.84626,-54.09684
2018-08-23 03:10:00+00:00,221.3831,17.5,12.97,47.84626,-54.09684
2018-08-23 03:20:00+00:00,218.4865,17.59,13.05,47.84626,-54.09684
2018-08-23 03:30:00+00:00,219.2564,17.6,13.05,47.84626,-54.09684
2018-08-23 03:40:00+00:00,221.4464,17.67,13.05,47.84626,-54.09684
2018-08-23 03:50:00+00:00,221.9031,17.7,13.05,47.84626,-54.09684
2018-08-23 04:00:00+00:00,220.5564,17.7,13.05,47.84626,-54.09684
2018-08-23 04:10:00+00:00,220.0081,17.77,12.97,47.84626,-54.09684
2018-08-23 04:20:00+00:00,219.1214,17.79,13.05,47.84626,-54.09684
2018-08-23 04:30:00+00:00,221.9314,17.8,13.05,47.84626,-54.09684
2018-08-23 04:40:00+00:00,227.0265,17.79,13.05,47.84626,-54.09684
2018-08-23 04:50:00+00:00,230.3698,17.7,13.05,47.84626,-54.09684
2018-08-23 05:00:00+00:00,231.0348,17.7,12.97,47.84626,-54.09684
2018-08-23 05:10:00+00:00,234.7081,17.7,12.97,47.84626,-54.09684
2018-08-23 05:20:00+00:00,238.8897,17.62,12.97,47.84626,-54.09684
2018-08-23 05:30:00+00:00,240.9514,17.67,12.97,47.84626,-54.09684
2018-08-23 05:40:00+00:00,242.8498,17.71,13.05,47.84626,-54.09684
2018-08-23 05:50:00+00:00,245.5164,17.78,13.05,47.84626,-54.09684
2018-08-23 06:00:00+00:00,246.9548,17.8,12.97,47.84626,-54.09684
2018-08-23 06:10:00+00:00,249.9214,17.8,12.89,47.84626,-54.09684
2018-08-23 06:20:00+00:00,256.1964,17.8,12.97,47.84626,-54.09684
2018-08-23 06:30:00+00:00,258.2247,17.82,12.97,47.84626,-54.09684
2018-08-23 06:40:00+00:00,259.1897,17.87,12.97,47.84626,-54.09684
2018-08-23 06:50:00+00:00,263.4614,17.89,12.97,47.84626,-54.09684
2018-08-23 07:00:00+00:00,271.173,17.9,12.97,47.84626,-54.09684
2018-08-23 07:10:00+00:00,271.5498,17.9,12.89,47.84626,-54.09684
2018-08-23 07:20:00+00:00,273.5665,17.9,12.97,47.84626,-54.09684
2018-08-23 07:30:00+00:00,280.303,17.9,12.97,47.84626,-54.09684
2018-08-23 07:40:00+00:00,286.6896,17.9,12.97,47.84626,-54.09684
2018-08-23 07:50:00+00:00,287.0098,17.9,12.97,47.84626,-54.09684
2018-08-23 08:00:00+00:00,292.2897,17.95,12.97,47.84626,-54.09684
2018-08-23 08:10:00+00:00,299.6346,17.97,12.89,47.84626,-54.09684
2018-08-23 08:20:00+00:00,302.5464,17.98,12.97,47.84626,-54.09684
2018-08-23 08:30:00+00:00,303.7014,17.99,12.97,47.84626,-54.09684
2018-08-23 08:40:00+00:00,308.7714,17.99,12.97,47.84626,-54.09684
2018-08-23 08:50:00+00:00,312.5881,17.99,12.97,47.84626,-54.09684
2018-08-23 09:00:00+00:00,313.0447,18.0,12.89,47.84626,-54.09684
2018-08-23 09:10:00+00:00,313.2063,18.0,12.81,47.84626,-54.09684
2018-08-23 09:20:00+00:00,317.6281,18.0,12.89,47.84626,-54.09684
2018-08-23 09:30:00+00:00,318.4863,18.0,12.97,47.84626,-54.09684
2018-08-23 09:40:00+00:00,317.523,18.0,12.97,47.84626,-54.09684
2018-08-23 09:50:00+00:00,317.6379,18.0,12.97,47.84626,-54.09684
2018-08-23 10:00:00+00:00,318.0963,18.0,12.89,47.84626,-54.09684
2018-08-23 10:10:00+00:00,316.6129,18.0,12.81,47.84626,-54.09684
2018-08-23 10:20:00+00:00,317.4147,18.0,12.97,47.84626,-54.09684
2018-08-23 10:30:00+00:00,317.4714,18.0,12.97,47.84626,-54.09684
2018-08-23 10:40:00+00:00,313.9515,18.0,12.97,47.84626,-54.09684
2018-08-23 10:50:00+00:00,315.863,18.0,12.97,47.84626,-54.09684
2018-08-23 11:00:00+00:00,313.9347,18.0,12.97,47.84626,-54.09684
2018-08-23 11:10:00+00:00,310.4746,18.0,12.97,47.84626,-54.09684
2018-08-23 11:20:00+00:00,307.178,18.0,13.05,47.84626,-54.09684
2018-08-23 11:30:00+00:00,305.8281,18.0,13.13,47.84626,-54.09684
2018-08-23 11:40:00+00:00,300.1764,18.0,13.21,47.84626,-54.09684
2018-08-23 11:50:00+00:00,295.0981,18.0,13.21,47.84626,-54.09684
2018-08-23 12:00:00+00:00,293.6513,18.0,13.29,47.84626,-54.09684
2018-08-23 12:10:00+00:00,290.3796,18.0,13.21,47.84626,-54.09684
2018-08-23 12:20:00+00:00,282.0364,18.0,13.29,47.84626,-54.09684
2018-08-23 12:30:00+00:00,273.5664,18.04,13.37,47.84626,-54.09684
2018-08-23 12:40:00+00:00,268.083,18.09,13.44,47.84626,-54.09684
2018-08-23 12:50:00+00:00,263.9747,18.09,13.6,47.84626,-54.09684
2018-08-23 13:00:00+00:00,256.9581,18.1,13.6,47.84626,-54.09684
2018-08-23 13:10:00+00:00,250.8164,18.15,13.53,47.84626,-54.09684
2018-08-23 13:20:00+00:00,245.9581,18.2,13.53,47.84626,-54.09684
2018-08-23 13:30:00+00:00,241.3815,18.28,13.6,47.84626,-54.09684
2018-08-23 13:40:00+00:00,236.3114,18.3,13.68,47.84626,-54.09684
2018-08-23 13:50:00+00:00,230.8514,18.3,13.68,47.84626,-54.09684
2018-08-23 14:00:00+00:00,227.0397,18.35,13.6,47.84626,-54.09684
2018-08-23 14:10:00+00:00,222.9365,18.4,13.53,47.84626,-54.09684
2018-08-23 14:20:00+00:00,220.1214,18.4,13.68,47.84626,-54.09684
2018-08-23 14:30:00+00:00,219.0347,18.4,13.76,47.84626,-54.09684
2018-08-23 14:40:00+00:00,218.6964,18.4,13.84,47.84626,-54.09684
2018-08-23 14:50:00+00:00,216.0548,18.4,13.84,47.84626,-54.09684
2018-08-23 15:00:00+00:00,212.0648,18.4,13.84,47.84626,-54.09684
2018-08-23 15:10:00+00:00,210.9597,18.37,13.68,47.84626,-54.09684
2018-08-23 15:20:00+00:00,212.3831,18.3,13.84,47.84626,-54.09684
2018-08-23 15:30:00+00:00,210.7714,18.3,13.84,47.84626,-54.09684
2018-08-23 15:40:00+00:00,209.4864,18.34,13.92,47.84626,-54.09684
2018-08-23 15:50:00+00:00,211.8931,18.37,13.92,47.84626,-54.09684
2018-08-23 16:00:00+00:00,213.0814,18.39,13.92,47.84626,-54.09684
2018-08-23 16:10:00+00:00,213.0665,18.4,13.84,47.84626,-54.09684
2018-08-23 16:20:00+00:00,215.3681,18.4,13.92,47.84626,-54.09684
2018-08-23 16:30:00+00:00,216.1248,18.4,14.0,47.84626,-54.09684
2018-08-23 16:40:00+00:00,215.7048,18.4,14.08,47.84626,-54.09684
2018-08-23 16:50:00+00:00,216.2931,18.43,14.16,47.84626,-54.09684
2018-08-23 17:00:00+00:00,221.3714,18.44,14.08,47.84626,-54.09684
2018-08-23 17:10:00+00:00,226.7664,18.41,14.0,47.84626,-54.09684
2018-08-23 17:20:00+00:00,230.5714,18.43,14.08,47.84626,-54.09684
2018-08-23 17:30:00+00:00,234.8481,18.46,14.08,47.84626,-54.09684
2018-08-23 17:40:00+00:00,240.6731,18.48,14.0,47.84626,-54.09684
2018-08-23 17:50:00+00:00,246.4448,18.48,14.0,47.84626,-54.09684
2018-08-23 18:00:00+00:00,248.2364,18.47,14.0,47.84626,-54.09684
2018-08-23 18:10:00+00:00,251.8598,18.47,13.92,47.84626,-54.09684
2018-08-23 18:20:00+00:00,257.4348,18.44,14.0,47.84626,-54.09684
2018-08-23 18:30:00+00:00,261.1731,18.4,14.0,47.84626,-54.09684
2018-08-23 18:40:00+00:00,264.6048,18.4,14.0,47.84626,-54.09684
2018-08-23 18:50:00+00:00,270.5347,18.4,14.0,47.84626,-54.09684
2018-08-23 19:00:00+00:00,276.9398,18.41,13.92,47.84626,-54.09684
2018-08-23 19:10:00+00:00,281.0764,18.4,13.84,47.84626,-54.09684
2018-08-23 19:20:00+00:00,284.7047,18.42,13.84,47.84626,-54.09684
2018-08-23 19:30:00+00:00,292.2347,18.45,13.84,47.84626,-54.09684
2018-08-23 19:40:00+00:00,302.0613,18.45,13.84,47.84626,-54.09684
2018-08-23 19:50:00+00:00,308.6647,18.46,13.84,47.84626,-54.09684
2018-08-23 20:00:00+00:00,311.153,18.48,13.76,47.84626,-54.09684
2018-08-23 20:10:00+00:00,314.8247,18.5,13.68,47.84626,-54.09684
2018-08-23 20:20:00+00:00,321.8563,18.5,13.68,47.84626,-54.09684
2018-08-23 20:30:00+00:00,327.503,18.5,13.68,47.84626,-54.09684
2018-08-23 20:40:00+00:00,330.5463,18.5,13.68,47.84626,-54.09684
2018-08-23 20:50:00+00:00,335.338,18.5,13.68,47.84626,-54.09684
2018-08-23 21:00:00+00:00,342.1896,18.5,13.6,47.84626,-54.09684
2018-08-23 21:10:00+00:00,346.0779,18.5,13.44,47.84626,-54.09684
2018-08-23 21:20:00+00:00,347.0046,18.5,13.44,47.84626,-54.09684
2018-08-23 21:30:00+00:00,348.2979,18.5,13.37,47.84626,-54.09684
2018-08-23 21:40:00+00:00,351.3495,18.5,13.37,47.84626,-54.09684
2018-08-23 21:50:00+00:00,354.6597,18.5,13.37,47.84626,-54.09684
2018-08-23 22:00:00+00:00,353.6163,18.5,13.29,47.84626,-54.09684
2018-08-23 22:10:00+00:00,352.3813,18.5,13.13,47.84626,-54.09684
2018-08-23 22:20:00+00:00,353.963,18.5,13.21,47.84626,-54.09684
2018-08-23 22:30:00+00:00,354.5213,18.53,13.21,47.84626,-54.09684
2018-08-23 22:40:00+00:00,351.3763,18.54,13.21,47.84626,-54.09684
2018-08-23 22:50:00+00:00,349.0763,18.56,13.21,47.84626,-54.09684
2018-08-23 23:00:00+00:00,347.948,18.57,13.13,47.84626,-54.09684
2018-08-23 23:10:00+00:00,344.1246,18.57,13.05,47.84626,-54.09684
2018-08-23 23:20:00+00:00,338.1563,18.57,13.13,47.84626,-54.09684
2018-08-23 23:30:00+00:00,334.5797,18.58,13.13,47.84626,-54.09684
2018-08-23 23:40:00+00:00,333.6296,18.58,13.13,47.84626,-54.09684
2018-08-23 23:50:00+00:00,329.163,18.58,13.13,47.84626,-54.09684
